Location: Kawakawa
(35.3830°S, 174.0670°E)
Time: 04:56:01
(UTC+12:00)

ISS - Visible Passes

Search period start: 16 April 2024 00:00
Search period end: 26 April 2024 00:00
Orbit: 413 x 419 km, 51.6° (Epoch: 15 April)

Date Brightness Start Highest point End Pass type
(mag) Time Alt. Az. Time Alt. Az. Time Alt. Az.
16 Apr -1.6 19:31:56 10° W 19:34:40 22° SSW 19:36:02 17° S visible
17 Apr -2.3 18:43:12 10° WNW 18:46:22 34° SW 18:49:34 10° SSE visible
18 Apr -0.9 19:34:37 10° SW 19:35:48 11° SSW 19:36:58 10° S visible
19 Apr -1.1 18:45:44 10° WSW 18:47:55 16° SSW 18:50:07 10° SSE visible
